Time,TemperatureF,DewpointF,PressureIn,WindDirection,WindDirectionDegrees,WindSpeedMPH,WindSpeedGustMPH,Humidity,HourlyPrecipIn,Conditions,Clouds,dailyrainin,SoftwareType,DateUTC
2013-10-06 00:00:00,65.1,61.8,30.02,North,360,0.0,0.0,89,0.00,,,0.00,Wunderground v.1.15,2013-10-06 04:00:00,
2013-10-06 00:05:00,65.0,62.0,30.01,North,360,0.0,0.0,90,0.00,,,0.00,Wunderground v.1.15,2013-10-06 04:05:00,
2013-10-06 00:10:00,64.9,61.9,30.01,North,360,0.0,0.0,90,0.00,,,0.00,Wunderground v.1.15,2013-10-06 04:10:00,
2013-10-06 00:15:00,64.8,62.1,30.00,North,360,0.0,0.0,91,0.00,,,0.00,Wunderground v.1.15,2013-10-06 04:15:00,
2013-10-06 00:20:00,64.7,62.0,30.00,North,360,0.0,0.0,91,0.00,,,0.00,Wunderground v.1.15,2013-10-06 04:20:00,
2013-10-06 00:25:00,64.7,62.0,30.00,North,32767,0.0,0.0,91,0.00,,,0.00,Wunderground v.1.15,2013-10-06 04:25:00,
2013-10-06 00:30:00,64.7,62.0,30.00,North,32767,0.0,0.0,91,0.00,,,0.00,Wunderground v.1.15,2013-10-06 04:30:00,
2013-10-06 00:35:00,64.8,62.4,30.00,North,32767,0.0,0.0,92,0.00,,,0.00,Wunderground v.1.15,2013-10-06 04:35:00,
2013-10-06 00:45:00,64.7,61.7,30.00,North,32767,0.0,0.0,90,0.00,,,0.00,Wunderground v.1.15,2013-10-06 04:45:00,
2013-10-06 00:50:00,64.7,61.7,30.00,North,360,0.0,0.0,90,0.00,,,0.00,Wunderground v.1.15,2013-10-06 04:50:00,
2013-10-06 00:59:00,64.5,61.8,29.99,North,32767,0.0,0.0,91,0.00,,,0.00,Wunderground v.1.15,2013-10-06 04:59:00,
2013-10-06 01:05:00,64.3,61.6,29.99,North,360,0.0,0.0,91,0.00,,,0.00,Wunderground v.1.15,2013-10-06 05:05:00,
2013-10-06 01:10:00,64.1,61.4,29.99,North,360,0.0,0.0,91,0.00,,,0.00,Wunderground v.1.15,2013-10-06 05:10:00,
2013-10-06 01:20:00,64.0,61.6,29.99,North,360,0.0,0.0,92,0.00,,,0.00,Wunderground v.1.15,2013-10-06 05:20:00,
2013-10-06 01:29:00,63.8,61.4,29.99,North,360,0.0,0.0,92,0.00,,,0.00,Wunderground v.1.15,2013-10-06 05:29:00,
2013-10-06 01:34:00,63.8,61.4,29.99,North,32767,0.0,0.0,92,0.00,,,0.00,Wunderground v.1.15,2013-10-06 05:34:00,
2013-10-06 01:40:00,63.8,61.4,29.98,North,32767,0.0,0.0,92,0.00,,,0.00,Wunderground v.1.15,2013-10-06 05:40:00,
2013-10-06 01:50:00,63.8,61.4,29.98,North,32767,0.0,0.0,92,0.00,,,0.00,Wunderground v.1.15,2013-10-06 05:50:00,
2013-10-06 01:55:00,63.9,61.5,29.98,North,32767,0.0,0.0,92,0.00,,,0.00,Wunderground v.1.15,2013-10-06 05:55:00,
2013-10-06 02:00:00,64.0,61.6,29.98,North,32767,0.0,0.0,92,0.00,,,0.00,Wunderground v.1.15,2013-10-06 06:00:00,
2013-10-06 02:05:00,64.0,61.3,29.98,North,32767,0.0,0.0,91,0.00,,,0.00,Wunderground v.1.15,2013-10-06 06:05:00,
2013-10-06 02:15:00,64.0,61.3,29.98,North,32767,0.0,0.0,91,0.00,,,0.00,Wunderground v.1.15,2013-10-06 06:15:00,
2013-10-06 02:25:00,63.8,61.4,29.98,North,32767,0.0,0.0,92,0.00,,,0.00,Wunderground v.1.15,2013-10-06 06:25:00,
2013-10-06 02:35:00,63.6,61.2,29.98,North,32767,0.0,0.0,92,0.00,,,0.00,Wunderground v.1.15,2013-10-06 06:35:00,
2013-10-06 02:45:00,63.5,61.1,29.97,North,32767,0.0,0.0,92,0.00,,,0.00,Wunderground v.1.15,2013-10-06 06:45:00,
2013-10-06 02:55:00,63.4,61.0,29.97,North,360,0.0,0.0,92,0.00,,,0.00,Wunderground v.1.15,2013-10-06 06:55:00,
2013-10-06 03:00:00,63.5,61.1,29.97,North,32767,0.0,0.0,92,0.00,,,0.00,Wunderground v.1.15,2013-10-06 07:00:00,
2013-10-06 03:05:00,63.4,61.0,29.97,North,32767,0.0,0.0,92,0.00,,,0.00,Wunderground v.1.15,2013-10-06 07:05:00,
2013-10-06 03:15:00,63.3,60.9,29.96,North,32767,0.0,0.0,92,0.00,,,0.00,Wunderground v.1.15,2013-10-06 07:15:00,
2013-10-06 03:25:00,63.2,61.1,29.96,North,360,0.0,0.0,93,0.00,,,0.00,Wunderground v.1.15,2013-10-06 07:25:00,
2013-10-06 03:35:00,63.2,61.1,29.96,North,360,0.0,0.0,93,0.00,,,0.00,Wunderground v.1.15,2013-10-06 07:35:00,
2013-10-06 03:45:00,63.1,61.0,29.96,North,360,0.0,0.0,93,0.00,,,0.00,Wunderground v.1.15,2013-10-06 07:45:00,
2013-10-06 03:54:00,63.0,60.9,29.95,North,32767,0.0,0.0,93,0.00,,,0.00,Wunderground v.1.15,2013-10-06 07:54:00,
2013-10-06 04:00:00,63.0,60.9,29.95,North,32767,0.0,0.0,93,0.00,,,0.00,Wunderground v.1.15,2013-10-06 08:00:00,
2013-10-06 04:05:00,62.9,60.8,29.95,North,32767,0.0,0.0,93,0.00,,,0.00,Wunderground v.1.15,2013-10-06 08:05:00,
2013-10-06 04:15:00,62.8,60.7,29.95,North,360,0.0,0.0,93,0.00,,,0.00,Wunderground v.1.15,2013-10-06 08:15:00,
2013-10-06 04:25:00,62.7,60.6,29.95,North,32767,0.0,0.0,93,0.00,,,0.00,Wunderground v.1.15,2013-10-06 08:25:00,
2013-10-06 04:35:00,62.6,60.5,29.95,North,32767,0.0,0.0,93,0.00,,,0.00,Wunderground v.1.15,2013-10-06 08:35:00,
2013-10-06 04:45:00,62.5,60.4,29.95,North,360,0.0,0.0,93,0.00,,,0.00,Wunderground v.1.15,2013-10-06 08:45:00,
2013-10-06 04:55:00,62.5,60.4,29.95,North,32767,0.0,0.0,93,0.00,,,0.00,Wunderground v.1.15,2013-10-06 08:55:00,
2013-10-06 05:05:00,62.4,60.3,29.95,North,32767,0.0,0.0,93,0.00,,,0.00,Wunderground v.1.15,2013-10-06 09:05:00,
2013-10-06 05:15:00,62.3,60.2,29.95,North,32767,0.0,0.0,93,0.00,,,0.00,Wunderground v.1.15,2013-10-06 09:15:00,
2013-10-06 05:25:00,62.3,60.2,29.95,North,32767,0.0,0.0,93,0.00,,,0.00,Wunderground v.1.15,2013-10-06 09:25:00,
2013-10-06 05:35:00,62.2,60.2,29.95,North,32767,0.0,0.0,93,0.00,,,0.00,Wunderground v.1.15,2013-10-06 09:35:00,
2013-10-06 05:45:00,62.2,60.2,29.95,North,32767,0.0,0.0,93,0.00,,,0.00,Wunderground v.1.15,2013-10-06 09:45:00,
2013-10-06 05:55:00,62.3,60.2,29.95,North,360,0.0,0.0,93,0.00,,,0.00,Wunderground v.1.15,2013-10-06 09:55:00,
2013-10-06 06:05:00,62.3,60.2,29.95,North,360,0.0,0.0,93,0.00,,,0.00,Wunderground v.1.15,2013-10-06 10:05:00,
2013-10-06 06:15:00,62.2,60.2,29.95,North,32767,0.0,0.0,93,0.00,,,0.00,Wunderground v.1.15,2013-10-06 10:15:00,
2013-10-06 06:20:00,62.1,60.1,29.95,North,360,0.0,0.0,93,0.00,,,0.00,Wunderground v.1.15,2013-10-06 10:20:00,
2013-10-06 06:25:00,61.9,59.9,29.95,North,32767,0.0,0.0,93,0.00,,,0.00,Wunderground v.1.15,2013-10-06 10:25:00,
2013-10-06 06:30:00,61.7,59.7,29.96,North,32767,0.0,0.0,93,0.00,,,0.00,Wunderground v.1.15,2013-10-06 10:30:00,
2013-10-06 06:40:00,61.6,59.9,29.96,North,32767,0.0,0.0,94,0.00,,,0.00,Wunderground v.1.15,2013-10-06 10:40:00,
2013-10-06 06:50:00,61.6,60.2,29.96,North,32767,0.0,0.0,95,0.00,,,0.00,Wunderground v.1.15,2013-10-06 10:50:00,
2013-10-06 06:55:00,61.6,60.2,29.96,North,360,0.0,0.0,95,0.00,,,0.00,Wunderground v.1.15,2013-10-06 10:55:00,
2013-10-06 07:00:00,61.6,60.2,29.96,North,360,0.0,0.0,95,0.00,,,0.00,Wunderground v.1.15,2013-10-06 11:00:00,
2013-10-06 07:05:00,61.7,60.0,29.96,North,32767,0.0,0.0,94,0.00,,,0.00,Wunderground v.1.15,2013-10-06 11:05:00,
2013-10-06 07:15:00,61.8,60.1,29.96,North,32767,0.0,0.0,94,0.00,,,0.00,Wunderground v.1.15,2013-10-06 11:15:00,
2013-10-06 07:25:00,61.8,60.1,29.96,North,32767,0.0,0.0,94,0.00,,,0.00,Wunderground v.1.15,2013-10-06 11:25:00,
2013-10-06 07:30:00,61.8,60.1,29.96,North,360,0.0,0.0,94,0.00,,,0.00,Wunderground v.1.15,2013-10-06 11:30:00,
2013-10-06 07:40:00,61.8,60.1,29.97,North,360,0.0,0.0,94,0.00,,,0.00,Wunderground v.1.15,2013-10-06 11:40:00,
2013-10-06 07:50:00,61.9,60.2,29.97,North,32767,0.0,0.0,94,0.00,,,0.00,Wunderground v.1.15,2013-10-06 11:50:00,
2013-10-06 08:00:00,61.7,59.7,29.96,North,32767,0.0,0.0,93,0.00,,,0.00,Wunderground v.1.15,2013-10-06 12:00:00,
2013-10-06 08:05:00,61.6,59.9,29.97,North,32767,0.0,0.0,94,0.00,,,0.00,Wunderground v.1.15,2013-10-06 12:05:00,
2013-10-06 08:15:00,61.3,59.6,29.97,North,32767,0.0,0.0,94,0.00,,,0.00,Wunderground v.1.15,2013-10-06 12:15:00,
2013-10-06 08:20:00,61.4,59.7,29.97,North,32767,0.0,0.0,94,0.00,,,0.00,Wunderground v.1.15,2013-10-06 12:20:00,
2013-10-06 08:30:00,61.5,60.1,29.96,North,32767,0.0,0.0,95,0.00,,,0.00,Wunderground v.1.15,2013-10-06 12:30:00,
2013-10-06 08:40:00,61.7,60.3,29.97,North,32767,0.0,0.0,95,0.00,,,0.00,Wunderground v.1.15,2013-10-06 12:40:00,
2013-10-06 08:45:00,61.9,60.5,29.96,North,32767,0.0,0.0,95,0.00,,,0.00,Wunderground v.1.15,2013-10-06 12:45:00,
2013-10-06 08:55:00,62.1,60.4,29.97,North,32767,0.0,0.0,94,0.00,,,0.00,Wunderground v.1.15,2013-10-06 12:55:00,
2013-10-06 09:05:00,62.3,60.6,29.97,North,32767,0.0,0.0,94,0.00,,,0.00,Wunderground v.1.15,2013-10-06 13:05:00,
2013-10-06 09:15:00,62.5,60.7,29.97,North,360,0.0,0.0,94,0.00,,,0.00,Wunderground v.1.15,2013-10-06 13:15:00,
2013-10-06 09:20:00,62.5,60.7,29.97,North,32767,0.0,0.0,94,0.00,,,0.00,Wunderground v.1.15,2013-10-06 13:20:00,
2013-10-06 09:25:00,62.6,61.4,29.97,North,32767,0.0,0.0,96,0.00,,,0.00,Wunderground v.1.15,2013-10-06 13:25:00,
2013-10-06 09:34:00,62.3,60.2,29.97,North,32767,0.0,0.0,93,0.00,,,0.00,Wunderground v.1.15,2013-10-06 13:34:00,
2013-10-06 09:40:00,62.0,60.0,29.97,North,32767,0.0,0.0,93,0.00,,,0.00,Wunderground v.1.15,2013-10-06 13:40:00,
2013-10-06 09:50:00,62.1,60.7,29.98,North,32767,0.0,0.0,95,0.00,,,0.00,Wunderground v.1.15,2013-10-06 13:50:00,
2013-10-06 09:55:00,62.2,60.8,29.97,North,32767,0.0,0.0,95,0.00,,,0.00,Wunderground v.1.15,2013-10-06 13:55:00,
2013-10-06 10:05:00,62.5,61.0,29.98,North,360,0.0,0.0,95,0.00,,,0.00,Wunderground v.1.15,2013-10-06 14:05:00,
2013-10-06 10:15:00,63.1,61.6,29.97,North,32767,0.0,0.0,95,0.00,,,0.00,Wunderground v.1.15,2013-10-06 14:15:00,
2013-10-06 10:25:00,63.7,61.9,29.97,North,32767,0.0,0.0,94,0.00,,,0.00,Wunderground v.1.15,2013-10-06 14:25:00,
2013-10-06 10:35:00,64.2,62.4,29.97,North,32767,0.0,0.0,94,0.00,,,0.00,Wunderground v.1.15,2013-10-06 14:35:00,
2013-10-06 10:45:00,64.8,62.7,29.96,North,32767,0.0,0.0,93,0.00,,,0.00,Wunderground v.1.15,2013-10-06 14:45:00,
2013-10-06 10:55:00,65.4,63.3,29.96,North,32767,0.0,0.0,93,0.00,,,0.00,Wunderground v.1.15,2013-10-06 14:55:00,
2013-10-06 11:00:00,65.7,63.3,29.96,North,32767,0.0,0.0,92,0.00,,,0.00,Wunderground v.1.15,2013-10-06 15:00:00,
2013-10-06 11:05:00,66.1,63.4,29.95,North,32767,0.0,0.0,91,0.00,,,0.00,Wunderground v.1.15,2013-10-06 15:05:00,
2013-10-06 11:15:00,67.1,63.7,29.94,North,32767,0.0,0.0,89,0.00,,,0.00,Wunderground v.1.15,2013-10-06 15:15:00,
2013-10-06 11:20:00,67.6,63.6,29.94,North,360,0.0,0.0,87,0.00,,,0.00,Wunderground v.1.15,2013-10-06 15:20:00,
2013-10-06 11:25:00,68.3,63.9,29.94,North,360,0.0,0.0,86,0.00,,,0.00,Wunderground v.1.15,2013-10-06 15:25:00,
2013-10-06 11:35:00,69.4,64.4,29.94,North,32767,0.0,0.0,84,0.00,,,0.00,Wunderground v.1.15,2013-10-06 15:35:00,
2013-10-06 11:45:00,70.1,64.0,29.94,North,32767,0.0,0.0,81,0.00,,,0.00,Wunderground v.1.15,2013-10-06 15:45:00,
2013-10-06 11:55:00,70.3,63.8,29.94,North,360,0.0,0.0,80,0.00,,,0.00,Wunderground v.1.15,2013-10-06 15:55:00,
2013-10-06 12:00:00,70.9,63.7,29.94,North,32767,0.0,0.0,78,0.00,,,0.00,Wunderground v.1.15,2013-10-06 16:00:00,
2013-10-06 12:05:00,71.1,63.5,29.93,North,32767,0.0,0.0,77,0.00,,,0.00,Wunderground v.1.15,2013-10-06 16:05:00,
2013-10-06 12:15:00,71.3,64.4,29.93,North,360,0.0,0.0,79,0.00,,,0.00,Wunderground v.1.15,2013-10-06 16:15:00,
2013-10-06 12:20:00,71.9,64.7,29.94,North,32767,0.0,0.0,78,0.00,,,0.00,Wunderground v.1.15,2013-10-06 16:20:00,
2013-10-06 12:25:00,71.9,63.9,29.93,North,32767,0.0,0.0,76,0.00,,,0.00,Wunderground v.1.15,2013-10-06 16:25:00,
2013-10-06 12:30:00,71.9,64.3,29.93,North,360,0.0,0.0,77,0.00,,,0.00,Wunderground v.1.15,2013-10-06 16:30:00,
2013-10-06 12:35:00,72.0,64.4,29.93,North,32767,0.0,0.0,77,0.00,,,0.00,Wunderground v.1.15,2013-10-06 16:35:00,
2013-10-06 12:40:00,72.0,64.4,29.93,North,360,0.0,0.0,77,0.00,,,0.00,Wunderground v.1.15,2013-10-06 16:40:00,
2013-10-06 12:45:00,72.1,64.1,29.92,North,32767,0.0,0.0,76,0.00,,,0.00,Wunderground v.1.15,2013-10-06 16:45:00,
2013-10-06 12:55:00,72.4,63.6,29.92,North,32767,0.0,0.0,74,0.00,,,0.00,Wunderground v.1.15,2013-10-06 16:55:00,
2013-10-06 13:00:00,72.4,63.6,29.91,North,32767,0.0,0.0,74,0.00,,,0.00,Wunderground v.1.15,2013-10-06 17:00:00,
2013-10-06 13:05:00,72.6,63.4,29.92,North,32767,0.0,0.0,73,0.00,,,0.00,Wunderground v.1.15,2013-10-06 17:05:00,
2013-10-06 13:15:00,73.1,63.5,29.91,North,32767,0.0,0.0,72,0.00,,,0.00,Wunderground v.1.15,2013-10-06 17:15:00,
2013-10-06 13:20:00,73.7,64.1,29.91,North,360,0.0,0.0,72,0.00,,,0.00,Wunderground v.1.15,2013-10-06 17:20:00,
2013-10-06 13:25:00,73.8,63.4,29.91,North,360,0.0,0.0,70,0.00,,,0.00,Wunderground v.1.15,2013-10-06 17:25:00,
2013-10-06 13:30:00,73.7,62.9,29.91,North,32767,0.0,0.0,69,0.00,,,0.00,Wunderground v.1.15,2013-10-06 17:30:00,
2013-10-06 13:35:00,73.8,63.0,29.91,North,32767,0.0,0.0,69,0.00,,,0.00,Wunderground v.1.15,2013-10-06 17:35:00,
2013-10-06 13:45:00,73.6,62.4,29.91,North,32767,0.0,0.0,68,0.00,,,0.00,Wunderground v.1.15,2013-10-06 17:45:00,
2013-10-06 13:50:00,73.5,63.1,29.90,North,32767,0.0,0.0,70,0.00,,,0.00,Wunderground v.1.15,2013-10-06 17:50:00,
2013-10-06 13:55:00,73.7,63.7,29.90,North,360,0.0,0.0,71,0.00,,,0.00,Wunderground v.1.15,2013-10-06 17:55:00,
2013-10-06 14:00:00,73.7,63.7,29.90,North,360,0.0,0.0,71,0.00,,,0.00,Wunderground v.1.15,2013-10-06 18:00:00,
2013-10-06 14:05:00,73.7,63.7,29.89,North,32767,0.0,0.0,71,0.00,,,0.00,Wunderground v.1.15,2013-10-06 18:05:00,
2013-10-06 14:15:00,73.1,62.7,29.89,North,360,0.0,0.0,70,0.00,,,0.00,Wunderground v.1.15,2013-10-06 18:15:00,
2013-10-06 14:20:00,73.1,63.5,29.89,North,32767,0.0,0.0,72,0.00,,,0.00,Wunderground v.1.15,2013-10-06 18:20:00,
2013-10-06 14:25:00,73.0,63.0,29.89,North,32767,0.0,0.0,71,0.00,,,0.00,Wunderground v.1.15,2013-10-06 18:25:00,
2013-10-06 14:35:00,73.1,62.7,29.88,North,32767,0.0,0.0,70,0.00,,,0.00,Wunderground v.1.15,2013-10-06 18:35:00,
2013-10-06 14:40:00,73.6,63.2,29.88,North,32767,0.0,0.0,70,0.00,,,0.00,Wunderground v.1.15,2013-10-06 18:40:00,
2013-10-06 14:50:00,74.3,63.5,29.87,North,32767,0.0,0.0,69,0.00,,,0.00,Wunderground v.1.15,2013-10-06 18:50:00,
2013-10-06 14:55:00,74.7,63.4,29.87,North,32767,0.0,0.0,68,0.00,,,0.00,Wunderground v.1.15,2013-10-06 18:55:00,
2013-10-06 15:00:00,74.9,64.5,29.87,North,360,0.0,0.0,70,0.00,,,0.00,Wunderground v.1.15,2013-10-06 19:00:00,
2013-10-06 15:05:00,74.9,63.2,29.87,North,32767,0.0,0.0,67,0.00,,,0.00,Wunderground v.1.15,2013-10-06 19:05:00,
2013-10-06 15:15:00,74.3,63.9,29.86,North,32767,0.0,0.0,70,0.00,,,0.00,Wunderground v.1.15,2013-10-06 19:15:00,
2013-10-06 15:25:00,74.2,63.4,29.86,North,32767,0.0,0.0,69,0.00,,,0.00,Wunderground v.1.15,2013-10-06 19:25:00,
2013-10-06 15:30:00,74.2,63.0,29.86,North,32767,0.0,0.0,68,0.00,,,0.00,Wunderground v.1.15,2013-10-06 19:30:00,
2013-10-06 15:35:00,74.1,63.3,29.86,North,360,0.0,0.0,69,0.00,,,0.00,Wunderground v.1.15,2013-10-06 19:35:00,
2013-10-06 15:40:00,73.7,63.3,29.86,North,360,0.0,0.0,70,0.00,,,0.00,Wunderground v.1.15,2013-10-06 19:40:00,
2013-10-06 15:50:00,73.3,62.9,29.86,North,32767,0.0,0.0,70,0.00,,,0.00,Wunderground v.1.15,2013-10-06 19:50:00,
2013-10-06 15:55:00,73.2,63.2,29.86,North,360,0.0,0.0,71,0.00,,,0.00,Wunderground v.1.15,2013-10-06 19:55:00,
2013-10-06 16:00:00,73.7,63.3,29.86,North,360,0.0,0.0,70,0.00,,,0.00,Wunderground v.1.15,2013-10-06 20:00:00,
2013-10-06 16:05:00,74.2,63.8,29.86,North,360,0.0,0.0,70,0.00,,,0.00,Wunderground v.1.15,2013-10-06 20:05:00,
2013-10-06 16:15:00,74.4,64.0,29.86,North,32767,0.0,0.0,70,0.00,,,0.00,Wunderground v.1.15,2013-10-06 20:15:00,
2013-10-06 16:25:00,75.0,63.7,29.85,North,32767,0.0,0.0,68,0.00,,,0.00,Wunderground v.1.15,2013-10-06 20:25:00,
2013-10-06 16:30:00,75.3,64.0,29.85,North,32767,0.0,0.0,68,0.00,,,0.00,Wunderground v.1.15,2013-10-06 20:30:00,
2013-10-06 16:35:00,75.1,63.4,29.85,North,32767,0.0,0.0,67,0.00,,,0.00,Wunderground v.1.15,2013-10-06 20:35:00,
2013-10-06 16:40:00,74.7,63.9,29.85,North,360,0.0,0.0,69,0.00,,,0.00,Wunderground v.1.15,2013-10-06 20:40:00,
2013-10-06 16:49:00,74.6,64.2,29.84,North,32767,0.0,0.0,70,0.00,,,0.00,Wunderground v.1.15,2013-10-06 20:49:00,
2013-10-06 16:55:00,74.8,64.4,29.84,North,32767,0.0,0.0,70,0.00,,,0.00,Wunderground v.1.15,2013-10-06 20:55:00,
2013-10-06 17:00:00,74.7,63.9,29.84,North,32767,0.0,0.0,69,0.00,,,0.00,Wunderground v.1.15,2013-10-06 21:00:00,
2013-10-06 17:05:00,74.6,63.3,29.84,North,360,0.0,0.0,68,0.00,,,0.00,Wunderground v.1.15,2013-10-06 21:05:00,
2013-10-06 17:15:00,73.6,62.8,29.84,North,32767,0.0,0.0,69,0.00,,,0.00,Wunderground v.1.15,2013-10-06 21:15:00,
2013-10-06 17:20:00,73.4,63.0,29.84,North,32767,0.0,0.0,70,0.00,,,0.00,Wunderground v.1.15,2013-10-06 21:20:00,
2013-10-06 17:25:00,73.0,62.2,29.84,North,360,0.0,0.0,69,0.00,,,0.00,Wunderground v.1.15,2013-10-06 21:25:00,
2013-10-06 17:35:00,72.3,62.4,29.84,North,32767,0.0,0.0,71,0.00,,,0.00,Wunderground v.1.15,2013-10-06 21:35:00,
2013-10-06 17:45:00,72.1,63.0,29.83,North,32767,0.0,0.0,73,0.00,,,0.00,Wunderground v.1.15,2013-10-06 21:45:00,
2013-10-06 17:50:00,72.1,62.6,29.84,North,360,0.0,0.0,72,0.00,,,0.00,Wunderground v.1.15,2013-10-06 21:50:00,
2013-10-06 18:00:00,71.8,62.7,29.84,North,32767,0.0,0.0,73,0.00,,,0.00,Wunderground v.1.15,2013-10-06 22:00:00,
2013-10-06 18:05:00,71.5,62.8,29.84,North,360,0.0,0.0,74,0.00,,,0.00,Wunderground v.1.15,2013-10-06 22:05:00,
2013-10-06 18:15:00,70.7,62.4,29.84,North,360,0.0,0.0,75,0.00,,,0.00,Wunderground v.1.15,2013-10-06 22:15:00,
2013-10-06 18:20:00,70.3,62.4,29.84,North,32767,0.0,0.0,76,0.00,,,0.00,Wunderground v.1.15,2013-10-06 22:20:00,
2013-10-06 18:30:00,69.6,62.4,29.84,North,32767,0.0,0.0,78,0.00,,,0.00,Wunderground v.1.15,2013-10-06 22:30:00,
2013-10-06 18:40:00,69.1,62.3,29.84,North,360,0.0,0.0,79,0.00,,,0.00,Wunderground v.1.15,2013-10-06 22:40:00,
2013-10-06 18:50:00,68.8,62.7,29.84,North,360,0.0,0.0,81,0.00,,,0.00,Wunderground v.1.15,2013-10-06 22:50:00,
2013-10-06 19:00:00,68.5,62.4,29.84,North,32767,0.0,0.0,81,0.00,,,0.00,Wunderground v.1.15,2013-10-06 23:00:00,
2013-10-06 19:05:00,68.3,62.6,29.85,North,32767,0.0,0.0,82,0.00,,,0.00,Wunderground v.1.15,2013-10-06 23:05:00,
2013-10-06 19:15:00,68.1,62.4,29.84,North,32767,0.0,0.0,82,0.00,,,0.00,Wunderground v.1.15,2013-10-06 23:15:00,
2013-10-06 19:20:00,67.9,62.2,29.84,North,32767,0.0,0.0,82,0.00,,,0.00,Wunderground v.1.15,2013-10-06 23:20:00,
2013-10-06 19:25:00,67.7,62.0,29.85,North,32767,0.0,0.0,82,0.00,,,0.00,Wunderground v.1.15,2013-10-06 23:25:00,
2013-10-06 19:35:00,67.5,62.2,29.84,North,32767,0.0,0.0,83,0.00,,,0.00,Wunderground v.1.15,2013-10-06 23:35:00,
2013-10-06 19:45:00,67.3,62.3,29.85,North,32767,0.0,0.0,84,0.00,,,0.00,Wunderground v.1.15,2013-10-06 23:45:00,
2013-10-06 19:55:00,67.1,62.4,29.84,North,32767,0.0,0.0,85,0.00,,,0.00,Wunderground v.1.15,2013-10-06 23:55:00,
2013-10-06 20:00:00,67.0,62.3,29.84,North,360,0.0,0.0,85,0.00,,,0.00,Wunderground v.1.15,2013-10-07 00:00:00,
2013-10-06 20:05:00,66.9,62.2,29.84,North,32767,0.0,0.0,85,0.00,,,0.00,Wunderground v.1.15,2013-10-07 00:05:00,
2013-10-06 20:15:00,66.7,62.4,29.84,North,32767,0.0,0.0,86,0.00,,,0.00,Wunderground v.1.15,2013-10-07 00:15:00,
2013-10-06 20:20:00,66.5,62.2,29.84,North,32767,0.0,0.0,86,0.00,,,0.00,Wunderground v.1.15,2013-10-07 00:20:00,
2013-10-06 20:30:00,66.3,62.3,29.84,North,32767,0.0,0.0,87,0.00,,,0.00,Wunderground v.1.15,2013-10-07 00:30:00,
2013-10-06 20:40:00,66.3,62.3,29.84,North,360,0.0,0.0,87,0.00,,,0.00,Wunderground v.1.15,2013-10-07 00:40:00,
2013-10-06 20:45:00,66.3,62.3,29.84,North,360,0.0,0.0,87,0.00,,,0.00,Wunderground v.1.15,2013-10-07 00:45:00,
2013-10-06 20:55:00,66.3,62.3,29.84,North,32767,0.0,0.0,87,0.00,,,0.00,Wunderground v.1.15,2013-10-07 00:55:00,
2013-10-06 21:05:00,66.1,62.1,29.83,North,32767,0.0,0.0,87,0.00,,,0.00,Wunderground v.1.15,2013-10-07 01:05:00,
2013-10-06 21:15:00,66.0,62.0,29.83,North,32767,0.0,0.0,87,0.00,,,0.00,Wunderground v.1.15,2013-10-07 01:15:00,
2013-10-06 21:25:00,66.0,62.0,29.84,North,360,0.0,0.0,87,0.00,,,0.00,Wunderground v.1.15,2013-10-07 01:25:00,
2013-10-06 21:30:00,66.1,62.1,29.84,North,32767,0.0,0.0,87,0.00,,,0.00,Wunderground v.1.15,2013-10-07 01:30:00,
2013-10-06 21:40:00,66.2,62.2,29.84,North,32767,0.0,0.0,87,0.00,,,0.00,Wunderground v.1.15,2013-10-07 01:40:00,
2013-10-06 21:45:00,66.2,62.2,29.84,North,32767,0.0,0.0,87,0.00,,,0.00,Wunderground v.1.15,2013-10-07 01:45:00,
2013-10-06 21:50:00,66.2,62.2,29.84,North,32767,0.0,0.0,87,0.00,,,0.00,Wunderground v.1.15,2013-10-07 01:50:00,
2013-10-06 21:56:00,66.2,62.2,29.85,North,32767,0.0,0.0,87,0.00,,,0.00,Wunderground v.1.15,2013-10-07 01:56:00,
2013-10-06 22:05:00,66.2,62.2,29.85,North,360,0.0,0.0,87,0.00,,,0.00,Wunderground v.1.15,2013-10-07 02:05:00,
2013-10-06 22:15:00,66.1,62.1,29.85,North,32767,0.0,0.0,87,0.00,,,0.00,Wunderground v.1.15,2013-10-07 02:15:00,
2013-10-06 22:20:00,66.1,62.1,29.85,North,32767,0.0,0.0,87,0.00,,,0.00,Wunderground v.1.15,2013-10-07 02:20:00,
2013-10-06 22:30:00,65.9,62.2,29.85,North,32767,0.0,0.0,88,0.00,,,0.00,Wunderground v.1.15,2013-10-07 02:30:00,
2013-10-06 22:40:00,65.8,62.1,29.84,North,32767,0.0,0.0,88,0.00,,,0.00,Wunderground v.1.15,2013-10-07 02:40:00,
2013-10-06 22:50:00,65.7,62.4,29.84,North,360,0.0,0.0,89,0.00,,,0.00,Wunderground v.1.15,2013-10-07 02:50:00,
2013-10-06 23:00:00,65.6,62.3,29.84,North,32767,0.0,0.0,89,0.00,,,0.00,Wunderground v.1.15,2013-10-07 03:00:00,
2013-10-06 23:05:00,65.5,62.2,29.84,North,360,0.0,0.0,89,0.00,,,0.00,Wunderground v.1.15,2013-10-07 03:05:00,
2013-10-06 23:15:00,65.6,62.3,29.84,North,360,0.0,0.0,89,0.00,,,0.00,Wunderground v.1.15,2013-10-07 03:15:00,
2013-10-06 23:25:00,65.5,62.2,29.83,North,32767,0.0,0.0,89,0.00,,,0.00,Wunderground v.1.15,2013-10-07 03:25:00,
2013-10-06 23:35:00,65.4,62.1,29.83,North,32767,0.0,0.0,89,0.00,,,0.00,Wunderground v.1.15,2013-10-07 03:35:00,
2013-10-06 23:40:00,65.4,62.4,29.83,North,360,0.0,0.0,90,0.00,,,0.00,Wunderground v.1.15,2013-10-07 03:40:00,
2013-10-06 23:45:00,65.4,62.1,29.83,North,32767,0.0,0.0,89,0.00,,,0.00,Wunderground v.1.15,2013-10-07 03:45:00,
2013-10-06 23:55:00,65.5,62.5,29.83,North,32767,0.0,0.0,90,0.00,,,0.00,Wunderground v.1.15,2013-10-07 03:55:00,